Weather History for Orange, MA

Change the Weather History Date:

Tuesday, January 22, 2013

  Actual Average Record
Temperature  
Mean Temperature 14 °F -  
Max Temperature 19 °F 26 °F 46 °F (1997)
Min Temperature 9 °F 7 °F -11 °F (2005)
Degree Days  
Heating Degree Days 50    
Moisture  
Dew Point 6 °F    
Average Humidity 67    
Maximum Humidity 100    
Minimum Humidity 33    
Precipitation  
Precipitation 0.01 in - - ()
Sea Level Pressure  
Sea Level Pressure 29.87 in    
Wind  
Wind Speed 4 mph (WNW)    
Max Wind Speed 18 mph    
Max Gust Speed 26 mph    
Visibility 8 miles    
Events Snow    
Averages and records for this station are not official NWS values.
T = Trace of Precipitation, MM = Missing Value Source: NWS Daily Summary

Daily Weather History Graph

Daily Weather History Graph

Search for Another Location

Airport:

Trip Planner

Search our weather history database for the weather conditions in past years. The results will help you decide how hot, cold, wet, or windy it might be!

Date:

Astronomy

Jan. 22, 2013 Rise Set
Actual Time 7:11 AM EST 4:50 PM EST
Civil Twilight 6:41 AM EST 5:20 PM EST
Nautical Twilight 6:06 AM EST 5:55 PM EST
Astronomical Twilight 5:33 AM EST 6:28 PM EST
Moon 1:09 PM EST (1/22) 3:31 AM EST (1/22)
Length of Visible Light 10h 39m
Length of Day
9h 38m
Waxing Gibbous, 82% of the Moon is Illuminated
Jan 22
Waxing Gibbous
Jan 26
Full
Feb 3
Last Quarter
Feb 10
New
Feb 17
First Quarter

Hourly Weather History & Observations

Time (EST) Temp. Windchill Dew Point Humidity Pressure Visibility Wind Dir Wind Speed Gust Speed Precip Events Conditions
12:10 AM 17.6 °F - 15.8 °F 93% 29.77 in 8.0 mi Calm Calm - N/A   Overcast
12:22 AM 19.4 °F - 15.8 °F 86% 29.76 in 8.0 mi Calm Calm - N/A   Overcast
12:41 AM 19.4 °F - 15.8 °F 86% 29.75 in 9.0 mi Calm Calm - N/A   Overcast
12:52 AM 19.0 °F - 16.0 °F 88% 29.78 in 7.0 mi Calm Calm - N/A   Overcast
1:19 AM 19.4 °F - 17.6 °F 93% 29.74 in 1.8 mi Calm Calm - 0.00 in Snow Light Snow
1:24 AM 19.4 °F - 17.6 °F 93% 29.74 in 1.0 mi Calm Calm - 0.00 in Snow Light Snow
1:34 AM 19.4 °F - 17.6 °F 93% 29.74 in 0.8 mi Calm Calm - 0.00 in Snow Light Snow
1:48 AM 19.4 °F - 17.6 °F 93% 29.75 in 1.2 mi Calm Calm - 0.01 in Snow Light Snow
1:52 AM 19.0 °F - 16.0 °F 88% 29.78 in 2.5 mi Calm Calm - 0.01 in Snow Light Snow
1:55 AM 19.4 °F - 15.8 °F 86% 29.75 in 3.0 mi Calm Calm - 0.00 in Snow Light Snow
2:12 AM 17.6 °F - 15.8 °F 93% 29.75 in 4.0 mi Calm Calm - 0.00 in Snow Light Snow
2:52 AM 15.1 °F - 12.0 °F 88% 29.77 in 4.0 mi Calm Calm - 0.00 in   Overcast
3:07 AM 15.8 °F - 12.2 °F 86% 29.75 in 2.0 mi Calm Calm - N/A   Overcast
3:16 AM 10.4 °F - 10.4 °F 100% 29.75 in 4.0 mi Calm Calm - N/A   Mostly Cloudy
3:52 AM 14.0 °F - 10.9 °F 88% 29.78 in 4.0 mi Calm Calm - 0.00 in Snow Light Snow
4:52 AM 17.1 °F 5.8 °F 12.0 °F 81% 29.78 in 10.0 mi WNW 9.2 mph - 0.00 in   Clear
5:52 AM 16.0 °F 4.4 °F 9.0 °F 74% 29.81 in 10.0 mi West 9.2 mph - N/A   Clear
6:52 AM 15.1 °F 7.7 °F 8.1 °F 74% 29.85 in 10.0 mi Variable 4.6 mph - N/A   Clear
7:52 AM 15.1 °F 2.5 °F 7.0 °F 70% 29.87 in 10.0 mi NW 10.4 mph 19.6 mph N/A   Clear
8:52 AM 16.0 °F 2.3 °F 3.0 °F 57% 29.88 in 10.0 mi West 12.7 mph 25.3 mph N/A   Clear
9:52 AM 17.1 °F 5.0 °F -0.0 °F 47% 29.91 in 10.0 mi WNW 10.4 mph 25.3 mph N/A   Clear
10:52 AM 18.0 °F 2.2 °F -0.9 °F 44% 29.91 in 10.0 mi WNW 18.4 mph 25.3 mph N/A   Clear
11:52 AM 18.0 °F 3.1 °F -4.0 °F 38% 29.91 in 10.0 mi WNW 16.1 mph 25.3 mph N/A   Clear
12:52 PM 19.0 °F 5.6 °F -4.0 °F 36% 29.89 in 10.0 mi West 13.8 mph - N/A   Mostly Cloudy
1:52 PM 19.0 °F 4.5 °F -5.1 °F 34% 29.90 in 10.0 mi West 16.1 mph 26.5 mph N/A   Partly Cloudy
1:59 PM 19.4 °F 6.0 °F -5.8 °F 33% 29.87 in 10.0 mi West 13.8 mph 24.2 mph N/A   Partly Cloudy
2:52 PM 18.0 °F 8.7 °F -4.0 °F 38% 29.92 in 10.0 mi West 6.9 mph 19.6 mph N/A   Partly Cloudy
3:52 PM 16.0 °F 5.3 °F -5.1 °F 39% 29.95 in 10.0 mi WNW 8.1 mph 20.7 mph N/A   Partly Cloudy
4:52 PM 15.1 °F 0.5 °F -4.0 °F 43% 29.98 in 10.0 mi NW 13.8 mph 19.6 mph N/A   Partly Cloudy
5:52 PM 14.0 °F 3.9 °F -4.0 °F 45% 30.01 in 10.0 mi WNW 6.9 mph - N/A   Clear
6:52 PM 12.9 °F 1.6 °F -4.0 °F 47% 30.03 in 10.0 mi WNW 8.1 mph - N/A   Clear
7:52 PM 12.0 °F 1.5 °F -0.9 °F 56% 30.04 in 10.0 mi West 6.9 mph - N/A   Clear
8:52 PM 12.0 °F 2.7 °F -2.0 °F 53% 30.06 in 10.0 mi WNW 5.8 mph - N/A   Clear
9:52 PM 10.0 °F -1.9 °F -2.9 °F 56% 30.07 in 10.0 mi WNW 8.1 mph - N/A   Clear
10:52 PM 10.0 °F 0.4 °F -7.1 °F 46% 30.09 in 10.0 mi West 5.8 mph - N/A   Clear
11:52 PM 9.0 °F -2.2 °F -6.0 °F 51% 30.08 in 10.0 mi West 6.9 mph - N/A   Scattered Clouds